Time,TemperatureF,DewpointF,PressureIn,WindDirection,WindDirectionDegrees,WindSpeedMPH,WindSpeedGustMPH,Humidity,HourlyPrecipIn,Conditions,Clouds,dailyrainin,SoftwareType,DateUTC
2013-04-30 00:01:00,69.3,57.5,29.81,SSE,159,1.0,1.0,66,0.00,,---,0.00,VWS V14.01,2013-04-30 05:01:00,
2013-04-30 00:06:00,69.0,57.6,29.81,SE,134,0.0,1.0,67,0.00,,---,0.00,VWS V14.01,2013-04-30 05:06:00,
2013-04-30 00:11:00,68.9,57.5,29.81,SE,146,0.0,3.0,67,0.00,,---,0.00,VWS V14.01,2013-04-30 05:11:00,
2013-04-30 00:16:00,68.7,57.7,29.81,SSE,163,1.0,3.0,68,0.00,,---,0.00,VWS V14.01,2013-04-30 05:16:00,
2013-04-30 00:21:00,68.5,57.5,29.81,SSE,160,0.0,3.0,68,0.00,,---,0.00,VWS V14.01,2013-04-30 05:21:00,
2013-04-30 00:26:00,68.3,57.3,29.81,SE,136,0.0,3.0,68,0.00,,---,0.00,VWS V14.01,2013-04-30 05:26:00,
2013-04-30 00:31:00,68.1,57.6,29.81,SSE,162,1.0,1.0,69,0.00,,---,0.00,VWS V14.01,2013-04-30 05:31:00,
2013-04-30 00:36:00,68.0,57.9,29.81,SSE,160,0.0,1.0,70,0.00,,---,0.00,VWS V14.01,2013-04-30 05:36:00,
2013-04-30 00:41:00,67.7,58.0,29.81,SSE,159,0.0,1.0,71,0.00,,---,0.00,VWS V14.01,2013-04-30 05:41:00,
2013-04-30 00:46:00,67.5,57.4,29.81,SSE,158,0.0,1.0,70,0.00,,---,0.00,VWS V14.01,2013-04-30 05:46:00,
2013-04-30 00:51:00,67.5,57.8,29.81,SSE,160,0.0,1.0,71,0.00,,---,0.00,VWS V14.01,2013-04-30 05:51:00,
2013-04-30 00:56:00,67.4,57.7,29.81,SSE,161,1.0,2.0,71,0.00,,---,0.00,VWS V14.01,2013-04-30 05:56:00,
2013-04-30 01:01:00,67.3,58.0,29.81,SSE,155,0.0,0.0,72,0.00,,---,0.00,VWS V14.01,2013-04-30 06:01:00,
2013-04-30 01:06:00,67.1,58.2,29.81,South,171,0.0,1.0,73,0.00,,---,0.00,VWS V14.01,2013-04-30 06:06:00,
2013-04-30 01:11:00,66.9,58.3,29.81,South,171,0.0,1.0,74,0.00,,---,0.00,VWS V14.01,2013-04-30 06:11:00,
2013-04-30 01:16:00,66.7,58.5,29.81,South,172,0.0,1.0,75,0.00,,---,0.00,VWS V14.01,2013-04-30 06:16:00,
2013-04-30 01:21:00,66.5,58.3,29.81,South,181,0.0,1.0,75,0.00,,---,0.00,VWS V14.01,2013-04-30 06:21:00,
2013-04-30 01:26:00,66.4,58.2,29.80,South,186,0.0,2.0,75,0.00,,---,0.00,VWS V14.01,2013-04-30 06:26:00,
2013-04-30 01:31:00,66.5,58.3,29.80,SSE,150,2.0,3.0,75,0.00,,---,0.00,VWS V14.01,2013-04-30 06:31:00,
2013-04-30 01:36:00,66.7,58.5,29.80,SSE,167,0.0,3.0,75,0.00,,---,0.00,VWS V14.01,2013-04-30 06:36:00,
2013-04-30 01:41:00,67.0,58.8,29.80,ESE,115,1.0,3.0,75,0.00,,---,0.00,VWS V14.01,2013-04-30 06:41:00,
2013-04-30 01:46:00,67.4,59.6,29.80,SE,136,5.0,5.0,76,0.00,,---,0.00,VWS V14.01,2013-04-30 06:46:00,
2013-04-30 01:51:00,67.9,60.4,29.80,ENE,73,4.0,6.0,77,0.00,,---,0.00,VWS V14.01,2013-04-30 06:51:00,
2013-04-30 01:56:00,68.2,60.3,29.80,SSE,161,2.0,6.0,76,0.00,,---,0.00,VWS V14.01,2013-04-30 06:56:00,
2013-04-30 02:01:00,68.1,59.9,29.80,ESE,120,4.0,4.0,75,0.00,,---,0.00,VWS V14.01,2013-04-30 07:01:00,
2013-04-30 02:06:00,68.1,59.5,29.80,SE,145,3.0,5.0,74,0.00,,---,0.00,VWS V14.01,2013-04-30 07:06:00,
2013-04-30 02:11:00,68.0,59.8,29.80,SSE,156,5.0,5.0,75,0.00,,---,0.00,VWS V14.01,2013-04-30 07:11:00,
2013-04-30 02:16:00,67.9,60.1,29.80,SE,127,2.0,5.0,76,0.00,,---,0.00,VWS V14.01,2013-04-30 07:16:00,
2013-04-30 02:21:00,67.5,60.0,29.80,SSE,151,2.0,5.0,77,0.00,,---,0.00,VWS V14.01,2013-04-30 07:21:00,
2013-04-30 02:26:00,67.2,59.4,29.80,SSE,160,1.0,5.0,76,0.00,,---,0.00,VWS V14.01,2013-04-30 07:26:00,
2013-04-30 02:31:00,66.9,59.5,29.80,SSE,147,1.0,2.0,77,0.00,,---,0.00,VWS V14.01,2013-04-30 07:31:00,
2013-04-30 02:36:00,66.7,59.6,29.80,SE,131,3.0,4.0,78,0.00,,---,0.00,VWS V14.01,2013-04-30 07:36:00,
2013-04-30 02:41:00,66.5,59.4,29.80,SSE,159,3.0,4.0,78,0.00,,---,0.00,VWS V14.01,2013-04-30 07:41:00,
2013-04-30 02:46:00,66.3,59.6,29.80,ESE,109,4.0,4.0,79,0.00,,---,0.00,VWS V14.01,2013-04-30 07:46:00,
2013-04-30 02:51:00,66.2,59.9,29.80,South,174,3.0,4.0,80,0.00,,---,0.00,VWS V14.01,2013-04-30 07:51:00,
2013-04-30 02:56:00,66.1,59.8,29.80,SSE,154,1.0,4.0,80,0.00,,---,0.00,VWS V14.01,2013-04-30 07:56:00,
2013-04-30 03:01:00,65.9,59.6,29.80,SE,143,1.0,1.0,80,0.00,,---,0.00,VWS V14.01,2013-04-30 08:01:00,
2013-04-30 03:06:00,65.8,59.5,29.80,SSE,161,3.0,4.0,80,0.00,,---,0.00,VWS V14.01,2013-04-30 08:06:00,
2013-04-30 03:11:00,65.7,59.4,29.80,South,171,1.0,4.0,80,0.00,,---,0.00,VWS V14.01,2013-04-30 08:11:00,
2013-04-30 03:16:00,65.5,59.5,29.80,SSW,201,2.0,4.0,81,0.00,,---,0.00,VWS V14.01,2013-04-30 08:16:00,
2013-04-30 03:21:00,65.4,59.4,29.80,SSE,168,1.0,4.0,81,0.00,,---,0.00,VWS V14.01,2013-04-30 08:21:00,
2013-04-30 03:26:00,65.2,59.6,29.80,South,179,2.0,4.0,82,0.00,,---,0.00,VWS V14.01,2013-04-30 08:26:00,
2013-04-30 03:31:00,65.1,59.5,29.80,South,169,1.0,1.0,82,0.00,,---,0.00,VWS V14.01,2013-04-30 08:31:00,
2013-04-30 03:36:00,64.9,59.3,29.80,SE,146,1.0,2.0,82,0.00,,---,0.00,VWS V14.01,2013-04-30 08:36:00,
2013-04-30 03:41:00,64.8,59.5,29.80,SE,141,1.0,2.0,83,0.00,,---,0.00,VWS V14.01,2013-04-30 08:41:00,
2013-04-30 03:46:00,64.7,59.8,29.80,SSE,163,0.0,3.0,84,0.00,,---,0.00,VWS V14.01,2013-04-30 08:46:00,
2013-04-30 03:51:00,64.6,59.7,29.80,SSE,150,1.0,3.0,84,0.00,,---,0.00,VWS V14.01,2013-04-30 08:51:00,
2013-04-30 03:56:00,64.6,59.7,29.80,SE,134,1.0,3.0,84,0.00,,---,0.00,VWS V14.01,2013-04-30 08:56:00,
2013-04-30 04:01:00,64.5,59.6,29.80,SE,125,0.0,1.0,84,0.00,,---,0.00,VWS V14.01,2013-04-30 09:01:00,
2013-04-30 04:06:00,64.6,59.7,29.80,SE,134,2.0,3.0,84,0.00,,---,0.00,VWS V14.01,2013-04-30 09:06:00,
2013-04-30 04:11:00,64.7,59.4,29.80,SE,143,2.0,3.0,83,0.00,,---,0.00,VWS V14.01,2013-04-30 09:11:00,
2013-04-30 04:16:00,64.7,59.4,29.80,ESE,104,2.0,3.0,83,0.00,,---,0.00,VWS V14.01,2013-04-30 09:16:00,
2013-04-30 04:21:00,64.6,59.3,29.80,SSE,148,1.0,3.0,83,0.00,,---,0.00,VWS V14.01,2013-04-30 09:21:00,
2013-04-30 04:26:00,64.5,59.6,29.80,SE,138,0.0,3.0,84,0.00,,---,0.00,VWS V14.01,2013-04-30 09:26:00,
2013-04-30 04:31:00,64.4,59.8,29.80,East,101,2.0,2.0,85,0.00,,---,0.00,VWS V14.01,2013-04-30 09:31:00,
2013-04-30 04:36:00,64.3,59.7,29.80,ESE,104,2.0,3.0,85,0.00,,---,0.00,VWS V14.01,2013-04-30 09:36:00,
2013-04-30 04:41:00,64.2,59.6,29.80,ESE,107,2.0,3.0,85,0.00,,---,0.00,VWS V14.01,2013-04-30 09:41:00,
2013-04-30 04:46:00,64.0,59.4,29.80,ESE,108,1.0,3.0,85,0.00,,---,0.00,VWS V14.01,2013-04-30 09:46:00,
2013-04-30 04:51:00,63.8,59.2,29.80,ESE,114,0.0,3.0,85,0.00,,---,0.00,VWS V14.01,2013-04-30 09:51:00,
2013-04-30 04:56:00,63.6,59.0,29.79,ESE,113,0.0,3.0,85,0.00,,---,0.00,VWS V14.01,2013-04-30 09:56:00,
2013-04-30 05:01:00,63.0,58.8,29.79,ESE,113,0.0,0.0,86,0.00,,---,0.00,VWS V14.01,2013-04-30 10:01:00,
2013-04-30 05:06:00,62.5,58.6,29.79,ESE,114,0.0,0.0,87,0.00,,---,0.00,VWS V14.01,2013-04-30 10:06:00,
2013-04-30 05:11:00,62.4,58.8,29.79,ESE,113,0.0,0.0,88,0.00,,---,0.00,VWS V14.01,2013-04-30 10:11:00,
2013-04-30 05:16:00,62.3,58.7,29.79,ESE,113,0.0,0.0,88,0.00,,---,0.00,VWS V14.01,2013-04-30 10:16:00,
2013-04-30 05:21:00,62.2,58.6,29.79,ESE,113,0.0,0.0,88,0.00,,---,0.00,VWS V14.01,2013-04-30 10:21:00,
2013-04-30 05:26:00,62.1,58.5,29.78,ESE,114,0.0,0.0,88,0.00,,---,0.00,VWS V14.01,2013-04-30 10:26:00,
2013-04-30 05:31:00,61.9,58.6,29.79,ESE,113,0.0,0.0,89,0.00,,---,0.00,VWS V14.01,2013-04-30 10:31:00,
2013-04-30 05:36:00,61.7,58.4,29.79,ESE,113,0.0,0.0,89,0.00,,---,0.00,VWS V14.01,2013-04-30 10:36:00,
2013-04-30 05:41:00,61.6,58.6,29.79,ESE,104,1.0,1.0,90,0.00,,---,0.00,VWS V14.01,2013-04-30 10:41:00,
2013-04-30 05:46:00,61.8,59.2,29.79,ESE,114,1.0,2.0,91,0.00,,---,0.00,VWS V14.01,2013-04-30 10:46:00,
2013-04-30 05:51:00,62.1,59.1,29.79,ESE,115,0.0,2.0,90,0.00,,---,0.00,VWS V14.01,2013-04-30 10:51:00,
2013-04-30 05:56:00,62.3,59.3,29.79,ESE,114,1.0,2.0,90,0.00,,---,0.00,VWS V14.01,2013-04-30 10:56:00,
2013-04-30 06:01:00,62.5,59.5,29.79,SE,129,1.0,1.0,90,0.00,,---,0.00,VWS V14.01,2013-04-30 11:01:00,
2013-04-30 06:06:00,62.5,59.5,29.79,ESE,110,0.0,2.0,90,0.00,,---,0.00,VWS V14.01,2013-04-30 11:06:00,
2013-04-30 06:11:00,62.5,59.5,29.80,SE,139,0.0,2.0,90,0.00,,---,0.00,VWS V14.01,2013-04-30 11:11:00,
2013-04-30 06:16:00,62.5,59.5,29.80,ESE,122,1.0,2.0,90,0.00,,---,0.00,VWS V14.01,2013-04-30 11:16:00,
2013-04-30 06:21:00,62.5,59.5,29.80,ESE,117,1.0,2.0,90,0.00,,---,0.00,VWS V14.01,2013-04-30 11:21:00,
2013-04-30 06:26:00,62.4,59.4,29.80,ESE,108,1.0,2.0,90,0.00,,---,0.00,VWS V14.01,2013-04-30 11:26:00,
2013-04-30 06:31:00,62.4,59.4,29.80,ESE,102,1.0,2.0,90,0.00,,---,0.00,VWS V14.01,2013-04-30 11:31:00,
2013-04-30 06:36:00,62.3,59.3,29.80,ESE,113,2.0,2.0,90,0.00,,---,0.00,VWS V14.01,2013-04-30 11:36:00,
2013-04-30 06:41:00,62.1,59.5,29.80,ESE,110,1.0,2.0,91,0.00,,---,0.00,VWS V14.01,2013-04-30 11:41:00,
2013-04-30 06:46:00,62.0,59.3,29.80,SE,124,0.0,3.0,91,0.00,,---,0.00,VWS V14.01,2013-04-30 11:46:00,
2013-04-30 06:51:00,62.1,59.8,29.80,SSE,163,0.0,3.0,92,0.00,,---,0.00,VWS V14.01,2013-04-30 11:51:00,
2013-04-30 06:56:00,62.0,59.3,29.80,SSE,164,0.0,3.0,91,0.00,,---,0.00,VWS V14.01,2013-04-30 11:56:00,
2013-04-30 07:01:00,61.9,59.5,29.81,SE,143,0.0,0.0,92,0.00,,---,0.00,VWS V14.01,2013-04-30 12:01:00,
2013-04-30 07:06:00,61.9,59.5,29.81,SSE,150,0.0,3.0,92,0.00,,---,0.00,VWS V14.01,2013-04-30 12:06:00,
2013-04-30 07:11:00,62.1,59.8,29.80,ESE,114,1.0,4.0,92,0.00,,---,0.00,VWS V14.01,2013-04-30 12:11:00,
2013-04-30 07:16:00,62.2,59.8,29.80,SE,138,0.0,4.0,92,0.00,,---,0.00,VWS V14.01,2013-04-30 12:16:00,
2013-04-30 07:21:00,62.3,60.0,29.80,SE,129,2.0,4.0,92,0.00,,---,0.00,VWS V14.01,2013-04-30 12:21:00,
2013-04-30 07:26:00,62.5,59.8,29.80,ESE,104,3.0,4.0,91,0.00,,---,0.00,VWS V14.01,2013-04-30 12:26:00,
2013-04-30 07:31:00,62.6,59.9,29.80,East,87,1.0,1.0,91,0.00,,---,0.00,VWS V14.01,2013-04-30 12:31:00,
2013-04-30 07:36:00,62.8,60.1,29.80,SE,127,2.0,3.0,91,0.00,,---,0.00,VWS V14.01,2013-04-30 12:36:00,
2013-04-30 07:41:00,63.0,60.3,29.80,East,93,2.0,4.0,91,0.00,,---,0.00,VWS V14.01,2013-04-30 12:41:00,
2013-04-30 07:46:00,63.3,60.6,29.80,ESE,111,1.0,4.0,91,0.00,,---,0.00,VWS V14.01,2013-04-30 12:46:00,
2013-04-30 07:51:00,63.7,61.0,29.81,SE,142,1.0,4.0,91,0.00,,---,0.00,VWS V14.01,2013-04-30 12:51:00,
2013-04-30 07:56:00,63.9,60.9,29.81,ESE,103,2.0,4.0,90,0.00,,---,0.00,VWS V14.01,2013-04-30 12:56:00,
2013-04-30 08:01:00,64.1,61.1,29.81,ESE,108,3.0,4.0,90,0.00,,---,0.00,VWS V14.01,2013-04-30 13:01:00,
2013-04-30 08:06:00,64.1,60.8,29.81,SE,131,1.0,4.0,89,0.00,,---,0.00,VWS V14.01,2013-04-30 13:06:00,
2013-04-30 08:11:00,64.3,61.0,29.81,SE,128,2.0,4.0,89,0.00,,---,0.00,VWS V14.01,2013-04-30 13:11:00,
2013-04-30 08:30:00,65.6,62.0,29.81,ESE,112,2.0,4.0,88,0.00,,---,0.00,VWS V14.01,2013-04-30 13:30:00,
2013-04-30 09:00:00,68.4,63.0,29.81,ESE,112,1.0,3.0,83,0.00,,---,0.00,VWS V14.01,2013-04-30 14:00:00,
2013-04-30 09:30:00,70.2,64.4,29.81,ESE,112,2.0,6.0,82,0.00,,---,0.00,VWS V14.01,2013-04-30 14:30:00,
2013-04-30 10:00:00,71.6,65.5,29.82,ESE,112,2.0,4.0,81,0.00,,---,0.00,VWS V14.01,2013-04-30 15:00:00,
2013-04-30 10:30:00,74.9,65.7,29.82,ESE,112,1.0,3.0,73,0.00,,---,0.00,VWS V14.01,2013-04-30 15:30:00,
2013-04-30 11:00:00,76.6,65.7,29.81,ESE,112,1.0,5.0,69,0.00,,---,0.00,VWS V14.01,2013-04-30 16:00:00,
2013-04-30 11:30:00,78.0,65.3,29.81,ESE,112,2.0,5.0,65,0.00,,---,0.00,VWS V14.01,2013-04-30 16:30:00,
2013-04-30 12:00:00,79.2,64.6,29.81,SSE,158,3.0,8.0,61,0.00,,---,0.00,VWS V14.01,2013-04-30 17:00:00,
2013-04-30 12:30:00,79.0,63.9,29.80,SSE,158,3.0,8.0,60,0.00,,---,0.00,VWS V14.01,2013-04-30 17:30:00,
2013-04-30 13:00:00,80.8,64.2,29.79,ESE,112,3.0,8.0,57,0.00,,---,0.00,VWS V14.01,2013-04-30 18:00:00,
2013-04-30 13:30:00,80.2,65.1,29.78,SSE,158,3.0,10.0,60,0.00,,---,0.00,VWS V14.01,2013-04-30 18:30:00,
2013-04-30 14:00:00,81.3,64.6,29.77,ESE,112,3.0,8.0,57,0.00,,---,0.00,VWS V14.01,2013-04-30 19:00:00,
2013-04-30 14:30:00,81.6,64.4,29.76,ESE,112,3.0,7.0,56,0.00,,---,0.00,VWS V14.01,2013-04-30 19:30:00,
2013-04-30 15:00:00,82.2,63.4,29.76,ESE,112,3.0,7.0,53,0.00,,---,0.00,VWS V14.01,2013-04-30 20:00:00,
2013-04-30 15:30:00,82.6,62.7,29.74,ESE,112,3.0,9.0,51,0.00,,---,0.00,VWS V14.01,2013-04-30 20:30:00,
2013-04-30 16:00:00,83.6,61.3,29.73,SE,135,3.0,8.0,47,0.00,,---,0.00,VWS V14.01,2013-04-30 21:00:00,
2013-04-30 16:30:00,83.7,64.2,29.73,ESE,112,2.0,9.0,52,0.00,,---,0.00,VWS V14.01,2013-04-30 21:30:00,
2013-04-30 17:00:00,82.6,63.2,29.73,East,90,3.0,8.0,52,0.00,,---,0.00,VWS V14.01,2013-04-30 22:00:00,
2013-04-30 17:30:00,83.1,63.1,29.73,East,90,4.0,8.0,51,0.00,,---,0.00,VWS V14.01,2013-04-30 22:30:00,
2013-04-30 18:00:00,82.7,64.9,29.73,East,90,4.0,11.0,55,0.00,,---,0.00,VWS V14.01,2013-04-30 23:00:00,
2013-04-30 18:30:00,80.9,63.8,29.73,East,90,6.0,9.0,56,0.00,,---,0.00,VWS V14.01,2013-04-30 23:30:00,
2013-04-30 19:00:00,79.5,63.9,29.73,East,90,6.0,10.0,59,0.00,,---,0.00,VWS V14.01,2013-05-01 00:00:00,
2013-04-30 19:30:00,78.4,64.8,29.74,East,90,6.0,13.0,63,0.00,,---,0.00,VWS V14.01,2013-05-01 00:30:00,
2013-04-30 20:00:00,76.8,63.7,29.74,East,90,6.0,13.0,64,0.00,,---,0.00,VWS V14.01,2013-05-01 01:00:00,
2013-04-30 20:30:00,75.3,64.0,29.75,East,90,5.0,11.0,68,0.00,,---,0.00,VWS V14.01,2013-05-01 01:30:00,
2013-04-30 21:00:00,74.3,64.3,29.76,East,90,4.0,9.0,71,0.00,,---,0.00,VWS V14.01,2013-05-01 02:00:00,
2013-04-30 21:30:00,73.4,64.2,29.76,East,90,5.0,9.0,73,0.00,,---,0.00,VWS V14.01,2013-05-01 02:30:00,
2013-04-30 22:00:00,72.6,64.6,29.78,East,90,5.0,10.0,76,0.00,,---,0.00,VWS V14.01,2013-05-01 03:00:00,
2013-04-30 22:30:00,72.3,64.7,29.79,East,90,7.0,12.0,77,0.00,,---,0.00,VWS V14.01,2013-05-01 03:30:00,
2013-04-30 23:00:00,71.7,64.5,29.79,East,90,6.0,12.0,78,0.00,,---,0.00,VWS V14.01,2013-05-01 04:00:00,
2013-04-30 23:30:00,70.4,64.3,29.79,East,90,3.0,6.0,81,0.00,,---,0.00,VWS V14.01,2013-05-01 04:30:00,